| time (UTC) | temp C | wind direction | speed KPH | gust KPH | rain 1hr cm | rain 24hr cm | rain mn cm | humidity % | barometer mb |
| 20260503054522 | 2 | 55 | 0.0 | 0.0 | 0.00 | 0.00 | 0.00 | 73 | 1018.7 |
| 20260503053017 | 3 | 55 | 0.0 | 0.0 | 0.00 | 0.00 | 0.00 | 71 | 1018.7 |
| 20260503051529 | 3 | 55 | 0.0 | 0.0 | 0.00 | 0.00 | 0.00 | 70 | 1018.9 |
| 20260503050005 | 3 | 55 | 0.0 | 0.0 | 0.00 | 0.00 | 0.00 | 71 | 1018.7 |
| 20260503044506 | 4 | 55 | 0.0 | 0.0 | 0.00 | 0.00 | 0.00 | 71 | 1018.7 |
| 20260503043016 | 4 | 55 | 0.0 | 0.0 | 0.00 | 0.00 | 0.00 | 70 | 1018.6 |
| 20260503041532 | 5 | 55 | 0.0 | 3.2 | 0.00 | 0.00 | 0.00 | 67 | 1018.4 |
| 20260503040023 | 5 | 55 | 0.0 | 0.0 | 0.00 | 0.00 | 0.00 | 66 | 1018.3 |
| 20260503034506 | 5 | 55 | 0.0 | 0.0 | 0.00 | 0.00 | 0.00 | 65 | 1018.2 |
| 20260503033010 | 6 | 55 | 0.0 | 0.0 | 0.00 | 0.00 | 0.00 | 63 | 1018.1 |
| 20260503031514 | 6 | 55 | 0.0 | 3.2 | 0.00 | 0.00 | 0.00 | 62 | 1018.2 |
| 20260503030024 | 6 | 55 | 0.0 | 3.2 | 0.00 | 0.00 | 0.00 | 60 | 1018.1 |
| 20260503024525 | 6 | 46 | 1.6 | 3.2 | 0.00 | 0.00 | 0.00 | 62 | 1018.0 |
| 20260503023011 | 6 | 56 | 0.0 | 4.8 | 0.00 | 0.00 | 0.00 | 60 | 1017.8 |
| 20260503021512 | 7 | 49 | 0.0 | 3.2 | 0.00 | 0.00 | 0.00 | 61 | 1017.7 |
| 20260503020016 | 7 | 49 | 0.0 | 3.2 | 0.00 | 0.00 | 0.00 | 60 | 1017.3 |
| 20260503014520 | 7 | 18 | 0.0 | 3.2 | 0.00 | 0.00 | 0.00 | 64 | 1017.2 |
| 20260503013033 | 8 | 325 | 0.0 | 0.0 | 0.00 | 0.00 | 0.00 | 57 | 1017.0 |
| 20260503011510 | 8 | 325 | 0.0 | 0.0 | 0.00 | 0.00 | 0.00 | 56 | 1016.8 |
| 20260503010015 | 8 | 325 | 0.0 | 0.0 | 0.00 | 0.00 | 0.00 | 54 | 1016.8 |
| 20260503004515 | 9 | 325 | 0.0 | 1.6 | 0.00 | 0.00 | 0.00 | 53 | 1016.7 |
| 20260503003027 | 9 | 325 | 0.0 | 1.6 | 0.00 | 0.00 | 0.00 | 53 | 1016.6 |
| 20260503001524 | 10 | 35 | 0.0 | 3.2 | 0.00 | 0.00 | 0.00 | 53 | 1016.5 |
| 20260503000011 | 10 | 353 | 0.0 | 4.8 | 0.00 | 0.00 | 0.00 | 53 | 1016.3 |
| 20260502234518 | 10 | 287 | 1.6 | 6.4 | 0.00 | 0.00 | 0.00 | 51 | 1016.2 |
| 20260502233018 | 10 | 321 | 0.0 | 4.8 | 0.00 | 0.00 | 0.00 | 51 | 1016.3 |
| 20260502231527 | 10 | 267 | 0.0 | 6.4 | 0.00 | 0.00 | 0.00 | 50 | 1016.1 |
| 20260502230024 | 10 | 259 | 1.6 | 6.4 | 0.00 | 0.00 | 0.00 | 48 | 1016.1 |
| 20260502224513 | 11 | 225 | 0.0 | 8.0 | 0.00 | 0.00 | 0.00 | 48 | 1016.1 |
| 20260502223018 | 11 | 233 | 1.6 | 9.7 | 0.00 | 0.00 | 0.00 | 47 | 1016.1 |
| 20260502221519 | 11 | 27 | 1.6 | 6.4 | 0.00 | 0.00 | 0.00 | 48 | 1016.1 |
| 20260502220026 | 11 | 305 | 3.2 | 9.7 | 0.00 | 0.00 | 0.00 | 45 | 1015.8 |
| 20260502214525 | 11 | 331 | 1.6 | 11.3 | 0.00 | 0.00 | 0.00 | 46 | 1015.8 |
| 20260502213032 | 11 | 329 | 1.6 | 9.7 | 0.00 | 0.00 | 0.00 | 47 | 1015.8 |
| 20260502211522 | 11 | 280 | 1.6 | 6.4 | 0.00 | 0.00 | 0.00 | 47 | 1015.7 |
| 20260502210005 | 11 | 328 | 4.8 | 11.3 | 0.00 | 0.00 | 0.00 | 45 | 1015.6 |
| 20260502204507 | 11 | 22 | 1.6 | 8.0 | 0.00 | 0.00 | 0.00 | 42 | 1015.7 |
| 20260502203012 | 12 | 32 | 3.2 | 11.3 | 0.00 | 0.00 | 0.00 | 46 | 1015.7 |
| 20260502201527 | 12 | 65 | 1.6 | 3.2 | 0.00 | 0.00 | 0.00 | 45 | 1015.8 |
| 20260502200003 | 12 | 113 | 0.0 | 6.4 | 0.00 | 0.00 | 0.00 | 42 | 1015.9 |
| 20260502194504 | 12 | 358 | 0.0 | 9.7 | 0.00 | 0.00 | 0.00 | 42 | 1015.9 |
| 20260502193008 | 12 | 46 | 3.2 | 8.0 | 0.00 | 0.00 | 0.00 | 48 | 1016.2 |
| 20260502191515 | 11 | 264 | 1.6 | 16.1 | 0.00 | 0.00 | 0.00 | 48 | 1016.2 |
| 20260502190028 | 11 | 212 | 4.8 | 11.3 | 0.00 | 0.00 | 0.00 | 44 | 1016.3 |
| 20260502184509 | 12 | 41 | 1.6 | 6.4 | 0.00 | 0.00 | 0.00 | 46 | 1016.5 |
| 20260502183007 | 11 | 221 | 1.6 | 8.0 | 0.00 | 0.00 | 0.00 | 45 | 1016.5 |
| 20260502181510 | 12 | 51 | 1.6 | 8.0 | 0.00 | 0.00 | 0.00 | 44 | 1016.5 |
| 20260502163022 | 11 | 48 | 0.0 | 6.4 | 0.00 | 0.00 | 0.00 | 49 | 1017.2 |
| 20260502161506 | 11 | 300 | 1.6 | 8.0 | 0.00 | 0.00 | 0.00 | 49 | 1017.3 |
| 20260502151524 | 10 | 56 | 3.2 | 6.4 | 0.00 | 0.00 | 0.00 | 61 | 1017.3 |
| 20260502123012 | 5 | 38 | 0.0 | 3.2 | 0.00 | 0.00 | 0.00 | 93 | 1017.3 |
| 20260502121520 | 3 | 38 | 0.0 | 0.0 | 0.00 | 0.00 | 0.00 | 93 | 1017.2 |
| 20260502114506 | 2 | 38 | 0.0 | 0.0 | 0.00 | 0.00 | 0.00 | 93 | 1017.1 |
| 20260502113010 | 1 | 38 | 0.0 | 3.2 | 0.00 | 0.00 | 0.00 | 92 | 1017.1 |
| 20260502111514 | 1 | 38 | 0.0 | 3.2 | 0.00 | 0.00 | 0.00 | 92 | 1016.9 |
| 20260502110021 | 1 | 38 | 0.0 | 0.0 | 0.00 | 0.00 | 0.00 | 92 | 1016.7 |
| 20260502104503 | 1 | 38 | 0.0 | 0.0 | 0.00 | 0.00 | 0.00 | 92 | 1016.6 |
| 20260502103014 | 1 | 38 | 0.0 | 0.0 | 0.00 | 0.00 | 0.00 | 92 | 1016.5 |
| 20260502101512 | 1 | 38 | 0.0 | 0.0 | 0.00 | 0.00 | 0.00 | 92 | 1016.5 |
| 20260502091516 | 2 | 38 | 0.0 | 0.0 | 0.00 | 0.00 | 0.00 | 91 | 1017.1 |
| 20260502071526 | 3 | 38 | 0.0 | 0.0 | 0.00 | 0.00 | 0.00 | 88 | 1016.7 |
| 20260502070012 | 3 | 38 | 0.0 | 0.0 | 0.00 | 0.00 | 0.00 | 87 | 1016.5 |
| 20260502064517 | 3 | 38 | 0.0 | 0.0 | 0.00 | 0.00 | 0.00 | 87 | 1016.7 |